CZ-4B DEB

基本信息
目录编号:
38314
目录名称:
CZ-4B DEB
国际标识:
2011-043D
轨道中心:
EARTH
物体状态:
在轨
发射日期:
2011-08-15 UTC
轨道信息
数据来源: 国际轨道数据
星历时间: 2026-09-09T09:59:28+0800
半长轴: 7478.53km
偏心率: 0.0263788
轨道倾角: 99.535°
近地点辐角: 270.385°
升交点赤经: 346.834°
平近点角: 213.867°
近地点: 903.118km
远地点: 1297.668km
周期: 107.271分钟
每日圈数: 13.423892
详细信息
发射场:
TSC
轨道高度:
LEO
数据来源:
AOE Integration Group
参考系:
TEME
时间系统:
UTC
历元类型:
SGP4
2D轨道图
3D轨道图
轨道高度分析图
轨道倾角分析图
轨道综合分析图
查看轨道综合分析图